contact:dominique.lefevre@mio.osupytheas.fr, maurice.libes@osupytheas.fr, didier.mallarino@osupytheas.fr
Project:EMSO http://www.emso-fr.org/EMSO-France
Depth: 2436.0 m
Title:EMSO Ligure Ouest : Data MII capteur AQUADOPP
Date,Latitude,Longitude,X_East,Y_North,Z_Up,Amplitude_X,Amplitude_Y,Amplitude_Z,Batterie,SoundSpeed,Heading,Pitch,Roll,Pressure,TIS,Speed,Direction
, degrees North, degrees East, m.s-1, m.s-1,m.s-1, 1, 1, 1, Volt, m.s-1, degree, degree, degree, dbar, degree_C, m.s-1, degree
2020-04-17T00:04:03,42.805,6.029,-0.033,0.035,0.027,104.0,118.0,102.0,13.4,1505.2,324.7,-0.7,1.8,2470.385,13.3,0.048,316.7
2020-04-17T00:07:03,42.805,6.029,-0.063,0.058,0.007,104.0,118.0,102.0,13.4,1505.3,323.4,-0.7,1.8,2470.366,13.31,0.085,312.6
2020-04-17T00:10:03,42.805,6.029,-0.034,0.062,0.051,104.0,117.0,103.0,13.3,1505.3,327.2,-0.7,1.8,2470.322,13.32,0.07,331.3
2020-04-17T00:13:03,42.805,6.029,-0.054,0.051,0.025,105.0,118.0,102.0,13.4,1505.3,324.4,-0.7,1.9,2470.348,13.32,0.074,313.4
2020-04-17T00:16:03,42.805,6.029,-0.027,0.038,0.025,104.0,121.0,101.0,13.3,1505.3,326.6,-0.7,1.8,2470.389,13.32,0.046,324.6
2020-04-17T00:19:03,42.805,6.029,-0.07,0.064,0.004,105.0,118.0,101.0,13.4,1505.3,324.7,-0.7,1.8,2470.323,13.32,0.094,312.4
2020-04-17T00:22:03,42.805,6.029,-0.043,0.049,0.012,106.0,116.0,101.0,13.4,1505.3,325.3,-0.7,1.8,2470.329,13.32,0.065,318.7
2020-04-17T00:25:03,42.805,6.029,-0.028,0.037,0.012,105.0,118.0,101.0,13.4,1505.3,325.9,-0.7,1.8,2470.361,13.32,0.046,322.9
2020-04-17T00:28:03,42.805,6.029,-0.048,0.046,-0.003,104.0,118.0,101.0,13.4,1505.3,325.3,-0.7,1.8,2470.34,13.32,0.066,313.8
2020-04-17T00:31:03,42.805,6.029,-0.042,0.055,0.007,104.0,119.0,101.0,13.3,1505.3,327.6,-0.7,1.8,2470.329,13.32,0.069,322.6
2020-04-17T00:34:03,42.805,6.029,-0.025,0.052,0.038,105.0,117.0,102.0,13.4,1505.3,323.8,-0.7,1.8,2470.33,13.32,0.057,334.3
2020-04-17T00:37:03,42.805,6.029,-0.038,0.032,0.009,103.0,119.0,102.0,13.4,1505.3,326.5,-0.7,1.8,2470.372,13.32,0.049,310.1
2020-04-17T00:40:03,42.805,6.029,-0.05,0.04,-0.001,106.0,116.0,102.0,13.3,1505.3,325.8,-0.7,1.8,2470.341,13.32,0.064,308.7
2020-04-17T00:43:03,42.805,6.029,-0.044,0.073,0.023,106.0,118.0,102.0,13.4,1505.3,326.2,-0.7,1.8,2470.353,13.32,0.085,328.9
2020-04-17T00:46:03,42.805,6.029,-0.024,0.063,0.016,106.0,118.0,102.0,13.3,1505.3,327.1,-0.7,1.9,2470.271,13.32,0.067,339.1
2020-04-17T00:49:03,42.805,6.029,-0.031,0.046,0.009,104.0,117.0,101.0,13.3,1505.3,323.4,-0.7,1.8,2470.331,13.32,0.055,326.0
2020-04-17T00:52:03,42.805,6.029,-0.052,0.059,0.008,105.0,118.0,102.0,13.3,1505.3,327.0,-0.7,1.8,2470.362,13.32,0.078,318.6
2020-04-17T00:55:03,42.805,6.029,-0.073,0.055,-0.018,105.0,118.0,102.0,13.4,1505.3,327.8,-0.7,1.9,2470.331,13.32,0.091,307.0
2020-04-17T00:58:03,42.805,6.029,-0.033,0.036,0.015,104.0,118.0,102.0,13.4,1505.3,326.5,-0.7,1.8,2470.315,13.32,0.048,317.5
2020-04-17T01:04:03,42.805,6.029,-0.07,0.057,0.014,105.0,119.0,103.0,13.4,1505.2,323.5,-0.7,1.8,2470.384,13.3,0.09,309.2
2020-04-17T01:07:03,42.805,6.029,-0.039,0.052,0.039,105.0,117.0,101.0,13.4,1505.3,323.3,-0.7,1.8,2470.377,13.31,0.064,323.1
2020-04-17T01:10:03,42.805,6.029,-0.032,0.059,0.024,105.0,117.0,103.0,13.3,1505.3,326.3,-0.7,1.8,2470.315,13.32,0.067,331.5
2020-04-17T01:13:03,42.805,6.029,-0.049,0.051,0.006,106.0,117.0,102.0,13.3,1505.3,326.4,-0.7,1.8,2470.391,13.32,0.07,316.1
2020-04-17T01:16:03,42.805,6.029,-0.025,0.043,0.039,106.0,118.0,101.0,13.4,1505.3,326.2,-0.7,1.8,2470.346,13.32,0.049,329.8
2020-04-17T01:19:03,42.805,6.029,-0.063,0.065,0.016,105.0,120.0,101.0,13.3,1505.3,326.3,-0.7,1.8,2470.364,13.32,0.09,315.9
2020-04-17T01:22:03,42.805,6.029,-0.052,0.04,0.032,104.0,116.0,101.0,13.4,1505.3,323.7,-0.7,1.8,2470.366,13.32,0.065,307.6
2020-04-17T01:25:03,42.805,6.029,-0.052,0.052,0.016,104.0,116.0,103.0,13.4,1505.3,325.8,-0.7,1.8,2470.356,13.32,0.073,315.0
2020-04-17T01:28:03,42.805,6.029,-0.045,0.027,-0.004,105.0,118.0,101.0,13.4,1505.3,324.8,-0.7,1.8,2470.372,13.32,0.052,301.0
2020-04-17T01:31:03,42.805,6.029,-0.061,0.065,0.011,104.0,117.0,103.0,13.4,1505.3,326.9,-0.7,1.8,2470.347,13.32,0.089,316.8
2020-04-17T01:34:03,42.805,6.029,-0.048,0.051,0.033,104.0,117.0,102.0,13.4,1505.3,323.5,-0.7,1.8,2470.325,13.32,0.07,316.7
2020-04-17T01:37:03,42.805,6.029,-0.004,0.056,0.046,104.0,118.0,100.0,13.4,1505.3,325.9,-0.7,1.9,2470.358,13.32,0.056,355.9
2020-04-17T01:40:03,42.805,6.029,-0.046,0.041,0.009,104.0,115.0,102.0,13.4,1505.3,325.6,-0.7,1.8,2470.334,13.32,0.061,311.7
2020-04-17T01:43:03,42.805,6.029,-0.051,0.06,0.015,105.0,116.0,101.0,13.3,1505.3,325.4,-0.7,1.8,2470.356,13.32,0.078,319.6
2020-04-17T01:46:03,42.805,6.029,-0.032,0.05,0.021,104.0,116.0,101.0,13.4,1505.3,326.9,-0.7,1.8,2470.354,13.32,0.059,327.4
2020-04-17T01:49:03,42.805,6.029,-0.048,0.051,0.016,105.0,115.0,101.0,13.4,1505.3,324.6,-0.7,1.8,2470.335,13.32,0.07,316.7
2020-04-17T01:52:03,42.805,6.029,-0.024,0.043,0.046,104.0,115.0,102.0,13.4,1505.3,323.5,-0.7,1.8,2470.373,13.32,0.049,330.8
2020-04-17T01:55:03,42.805,6.029,-0.046,0.03,0.017,103.0,116.0,101.0,13.4,1505.3,324.4,-0.7,1.8,2470.387,13.32,0.054,303.1
2020-04-17T01:58:03,42.805,6.029,-0.057,0.073,0.031,105.0,116.0,101.0,13.3,1505.3,326.7,-0.8,1.8,2470.381,13.32,0.092,322.0
2020-04-17T02:04:03,42.805,6.029,-0.063,0.053,-0.02,105.0,117.0,101.0,13.4,1505.2,325.8,-0.7,1.8,2470.386,13.3,0.082,310.1
2020-04-17T02:07:03,42.805,6.029,-0.046,0.036,-0.011,105.0,116.0,101.0,13.4,1505.3,327.7,-0.7,1.8,2470.374,13.31,0.058,308.0
2020-04-17T02:10:03,42.805,6.029,-0.064,0.073,0.028,104.0,116.0,102.0,13.4,1505.3,323.8,-0.7,1.9,2470.383,13.31,0.097,318.8
2020-04-17T02:13:03,42.805,6.029,-0.057,0.036,-0.01,104.0,119.0,101.0,13.3,1505.3,326.1,-0.7,1.8,2470.395,13.32,0.067,302.3
2020-04-17T02:16:03,42.805,6.029,-0.058,0.045,-0.006,105.0,115.0,102.0,13.4,1505.3,325.6,-0.7,1.8,2470.414,13.32,0.073,307.8
2020-04-17T02:19:03,42.805,6.029,-0.051,0.069,0.008,104.0,117.0,101.0,13.4,1505.3,327.8,-0.7,1.8,2470.398,13.32,0.085,323.5
2020-04-17T02:22:03,42.805,6.029,-0.061,0.056,0.032,104.0,116.0,102.0,13.4,1505.3,325.7,-0.7,1.9,2470.375,13.32,0.082,312.6
2020-04-17T02:25:03,42.805,6.029,-0.042,0.04,0.015,105.0,117.0,100.0,13.4,1505.3,323.1,-0.7,1.8,2470.38,13.32,0.057,313.6
2020-04-17T02:28:03,42.805,6.029,-0.064,0.071,0.024,104.0,117.0,102.0,13.3,1505.3,326.3,-0.7,1.8,2470.358,13.32,0.095,318.0
2020-04-17T02:31:03,42.805,6.029,-0.042,0.051,0.026,104.0,117.0,101.0,13.3,1505.3,323.7,-0.7,1.8,2470.402,13.32,0.066,320.5
2020-04-17T02:34:03,42.805,6.029,-0.058,0.065,0.001,104.0,117.0,101.0,13.4,1505.3,324.0,-0.7,1.8,2470.436,13.32,0.087,318.3
2020-04-17T02:37:03,42.805,6.029,-0.048,0.055,0.001,104.0,116.0,102.0,13.3,1505.3,326.8,-0.7,1.8,2470.377,13.32,0.072,318.9
2020-04-17T02:40:03,42.805,6.029,-0.051,0.044,0.015,105.0,114.0,102.0,13.4,1505.3,323.9,-0.7,1.8,2470.39,13.32,0.067,310.8
2020-04-17T02:43:03,42.805,6.029,-0.026,0.058,0.009,104.0,117.0,102.0,13.3,1505.3,325.8,-0.7,1.8,2470.359,13.32,0.063,335.9
2020-04-17T02:46:03,42.805,6.029,-0.034,0.062,0.021,104.0,116.0,102.0,13.4,1505.3,323.4,-0.7,1.8,2470.376,13.32,0.07,331.3
2020-04-17T02:49:03,42.805,6.029,-0.054,0.065,0.02,104.0,116.0,103.0,13.4,1505.3,325.8,-0.7,1.8,2470.389,13.32,0.084,320.3
2020-04-17T02:52:03,42.805,6.029,-0.078,0.049,-0.007,105.0,118.0,101.0,13.4,1505.3,328.1,-0.7,1.9,2470.38,13.32,0.092,302.1
2020-04-17T02:55:03,42.805,6.029,-0.068,0.065,0.025,104.0,118.0,102.0,13.4,1505.3,325.3,-0.7,1.8,2470.394,13.32,0.094,313.7
2020-04-17T02:58:03,42.805,6.029,-0.065,0.03,0.001,105.0,116.0,101.0,13.4,1505.3,326.1,-0.7,1.9,2470.381,13.32,0.071,294.8
2020-04-17T03:04:03,42.805,6.029,-0.052,0.05,0.002,105.0,115.0,101.0,13.4,1505.2,326.0,-0.7,1.8,2470.45,13.3,0.072,313.9
2020-04-17T03:07:03,42.805,6.029,-0.065,0.059,0.023,105.0,114.0,101.0,13.4,1505.3,325.3,-0.7,1.8,2470.442,13.31,0.087,312.2
2020-04-17T03:10:03,42.805,6.029,-0.049,0.049,0.059,105.0,116.0,101.0,13.3,1505.3,325.6,-0.7,1.9,2470.394,13.31,0.069,315.0
2020-04-17T03:13:03,42.805,6.029,-0.072,0.049,-0.013,104.0,116.0,101.0,13.4,1505.3,325.0,-0.7,1.8,2470.426,13.32,0.087,304.2
2020-04-17T03:16:03,42.805,6.029,-0.03,0.064,0.021,103.0,118.0,102.0,13.3,1505.3,326.9,-0.7,1.8,2470.447,13.32,0.07,334.9
2020-04-17T03:19:03,42.805,6.029,-0.051,0.057,0.024,104.0,116.0,103.0,13.4,1505.3,324.5,-0.7,1.8,2470.421,13.32,0.076,318.2
2020-04-17T03:22:03,42.805,6.029,-0.04,0.061,0.034,104.0,116.0,102.0,13.4,1505.3,324.1,-0.7,1.8,2470.416,13.32,0.072,326.7
2020-04-17T03:25:03,42.805,6.029,-0.068,0.056,-0.003,104.0,117.0,101.0,13.4,1505.3,327.9,-0.7,1.8,2470.396,13.32,0.088,309.5
2020-04-17T03:28:03,42.805,6.029,-0.044,0.074,0.013,105.0,116.0,102.0,13.4,1505.3,326.9,-0.7,1.8,2470.406,13.32,0.086,329.3
2020-04-17T03:31:03,42.805,6.029,-0.03,0.056,0.017,104.0,118.0,101.0,13.4,1505.3,328.0,-0.7,1.8,2470.36,13.32,0.063,331.8
2020-04-17T03:34:03,42.805,6.029,-0.037,0.078,0.028,104.0,115.0,101.0,13.4,1505.3,325.1,-0.7,1.8,2470.381,13.32,0.086,334.6
2020-04-17T03:37:03,42.805,6.029,-0.02,0.037,0.018,104.0,116.0,102.0,13.4,1505.3,327.8,-0.7,1.8,2470.421,13.32,0.042,331.6
2020-04-17T03:40:03,42.805,6.029,-0.048,0.045,-0.005,104.0,115.0,102.0,13.4,1505.3,327.2,-0.7,1.8,2470.415,13.32,0.065,313.1
2020-04-17T03:43:03,42.805,6.029,-0.02,0.059,0.074,103.0,118.0,103.0,13.4,1505.3,328.1,-0.7,1.8,2470.407,13.32,0.062,341.3
2020-04-17T03:46:03,42.805,6.029,-0.058,0.056,-0.005,104.0,117.0,100.0,13.4,1505.3,326.7,-0.7,1.9,2470.449,13.32,0.08,314.0
2020-04-17T03:49:03,42.805,6.029,-0.05,0.036,0.02,104.0,118.0,102.0,13.3,1505.3,328.6,-0.7,1.8,2470.44,13.32,0.061,305.8
2020-04-17T03:52:03,42.805,6.029,-0.021,0.049,0.043,105.0,116.0,101.0,13.4,1505.3,323.8,-0.7,1.9,2470.406,13.32,0.053,336.8
2020-04-17T03:55:03,42.805,6.029,-0.025,0.05,0.034,105.0,117.0,102.0,13.4,1505.3,327.2,-0.7,1.8,2470.416,13.32,0.055,333.4
2020-04-17T03:58:03,42.805,6.029,-0.046,0.068,0.059,104.0,117.0,102.0,13.4,1505.3,323.8,-0.7,1.8,2470.396,13.32,0.082,325.9
2020-04-17T04:04:03,42.805,6.029,-0.045,0.068,0.04,104.0,117.0,101.0,13.4,1505.2,325.3,-0.7,1.8,2470.423,13.3,0.081,326.5
2020-04-17T04:07:03,42.805,6.029,-0.075,0.058,-0.006,104.0,117.0,101.0,13.4,1505.3,323.4,-0.7,1.8,2470.374,13.31,0.094,307.7
2020-04-17T04:10:03,42.805,6.029,-0.056,0.045,0.041,104.0,119.0,102.0,13.4,1505.3,325.9,-0.7,1.8,2470.409,13.32,0.071,308.8
2020-04-17T04:13:03,42.805,6.029,-0.067,0.051,-0.018,103.0,116.0,102.0,13.4,1505.3,326.5,-0.7,1.8,2470.424,13.32,0.084,307.3
2020-04-17T04:16:03,42.805,6.029,-0.058,0.074,0.019,105.0,116.0,102.0,13.3,1505.3,328.4,-0.7,1.8,2470.412,13.32,0.094,321.9
2020-04-17T04:19:03,42.805,6.029,-0.06,0.056,0.002,104.0,117.0,102.0,13.3,1505.3,325.0,-0.7,1.8,2470.394,13.32,0.082,313.0
2020-04-17T04:22:03,42.805,6.029,-0.059,0.057,0.01,105.0,116.0,102.0,13.4,1505.3,325.1,-0.7,1.8,2470.411,13.32,0.082,314.0
2020-04-17T04:25:03,42.805,6.029,-0.071,0.065,0.015,104.0,117.0,101.0,13.4,1505.3,325.0,-0.7,1.8,2470.393,13.32,0.096,312.5
2020-04-17T04:28:03,42.805,6.029,-0.054,0.054,0.001,104.0,117.0,103.0,13.4,1505.3,323.2,-0.7,1.8,2470.386,13.32,0.076,315.0
2020-04-17T04:31:03,42.805,6.029,-0.046,0.055,0.029,103.0,118.0,102.0,13.4,1505.3,326.8,-0.7,1.8,2470.407,13.32,0.071,320.1
2020-04-17T04:34:03,42.805,6.029,-0.053,0.062,-0.004,103.0,118.0,102.0,13.4,1505.3,328.3,-0.7,1.8,2470.439,13.32,0.081,319.5
2020-04-17T04:37:03,42.805,6.029,-0.049,0.04,0.019,104.0,116.0,102.0,13.3,1505.3,325.0,-0.7,1.8,2470.39,13.32,0.063,309.2
2020-04-17T04:40:03,42.805,6.029,-0.051,0.052,0.02,105.0,115.0,101.0,13.4,1505.3,326.5,-0.7,1.8,2470.404,13.32,0.072,315.5
2020-04-17T04:43:03,42.805,6.029,-0.025,0.05,0.018,104.0,119.0,100.0,13.4,1505.3,323.4,-0.7,1.8,2470.435,13.32,0.055,333.4
2020-04-17T04:46:03,42.805,6.029,-0.03,0.059,0.013,105.0,118.0,102.0,13.4,1505.3,324.6,-0.7,1.8,2470.433,13.32,0.066,333.0
2020-04-17T04:49:03,42.805,6.029,-0.023,0.049,0.031,105.0,117.0,102.0,13.4,1505.3,323.0,-0.7,1.8,2470.394,13.32,0.054,334.9
2020-04-17T04:52:03,42.805,6.029,-0.056,0.056,0.0,104.0,118.0,102.0,13.4,1505.3,325.7,-0.7,1.9,2470.372,13.32,0.079,315.0
2020-04-17T04:55:03,42.805,6.029,-0.026,0.045,-0.013,104.0,117.0,101.0,13.3,1505.3,325.1,-0.7,1.8,2470.405,13.32,0.051,330.0
2020-04-17T04:58:03,42.805,6.029,-0.027,0.042,0.014,106.0,116.0,101.0,13.4,1505.3,324.4,-0.7,1.8,2470.385,13.32,0.049,327.3
2020-04-17T05:04:03,42.805,6.029,-0.05,0.043,-0.007,104.0,116.0,100.0,13.4,1505.2,324.7,-0.7,1.9,2470.435,13.3,0.065,310.7
2020-04-17T05:07:03,42.805,6.029,-0.063,0.061,0.042,103.0,116.0,103.0,13.4,1505.3,325.9,-0.7,1.8,2470.406,13.31,0.087,314.1
2020-04-17T05:10:03,42.805,6.029,-0.034,0.054,0.055,104.0,118.0,102.0,13.4,1505.3,323.5,-0.7,1.9,2470.401,13.32,0.063,327.8
2020-04-17T05:13:03,42.805,6.029,-0.032,0.054,0.034,104.0,116.0,101.0,13.4,1505.3,326.3,-0.7,1.8,2470.431,13.32,0.062,329.3
2020-04-17T05:16:03,42.805,6.029,-0.046,0.055,0.038,104.0,115.0,101.0,13.4,1505.3,326.5,-0.7,1.9,2470.414,13.32,0.071,320.1
2020-04-17T05:19:03,42.805,6.029,-0.036,0.075,0.041,105.0,116.0,100.0,13.4,1505.3,324.8,-0.7,1.8,2470.418,13.32,0.083,334.4
2020-04-17T05:22:03,42.805,6.029,-0.044,0.054,0.048,104.0,116.0,102.0,13.3,1505.3,325.0,-0.7,1.9,2470.432,13.32,0.069,320.8
2020-04-17T05:25:03,42.805,6.029,-0.016,0.041,0.014,103.0,120.0,100.0,13.3,1505.3,326.7,-0.7,1.9,2470.423,13.32,0.044,338.7
2020-04-17T05:28:03,42.805,6.029,-0.041,0.059,0.032,105.0,116.0,101.0,13.4,1505.3,323.1,-0.7,1.8,2470.413,13.32,0.071,325.2
2020-04-17T05:31:03,42.805,6.029,-0.065,0.047,-0.016,105.0,118.0,101.0,13.4,1505.3,324.8,-0.7,1.8,2470.423,13.32,0.08,305.9
2020-04-17T05:37:03,42.805,6.029,-0.032,0.05,0.006,105.0,118.0,100.0,13.4,1505.2,326.8,-0.7,1.8,2470.444,13.3,0.059,327.4
2020-04-17T05:40:03,42.805,6.029,-0.032,0.05,0.053,104.0,116.0,100.0,13.4,1505.3,324.7,-0.7,1.8,2470.419,13.31,0.059,327.4
2020-04-17T05:43:03,42.805,6.029,-0.054,0.038,-0.002,104.0,117.0,101.0,13.4,1505.3,327.9,-0.7,1.8,2470.398,13.32,0.066,305.1
2020-04-17T05:46:03,42.805,6.029,-0.061,0.067,-0.003,103.0,117.0,101.0,13.3,1505.3,323.6,-0.7,1.8,2470.43,13.32,0.09,317.7
2020-04-17T05:49:03,42.805,6.029,-0.041,0.069,0.027,103.0,118.0,102.0,13.4,1505.3,326.7,-0.7,1.8,2470.396,13.32,0.08,329.3
2020-04-17T05:52:03,42.805,6.029,-0.036,0.078,0.021,103.0,118.0,101.0,13.4,1505.3,322.7,-0.7,1.9,2470.426,13.32,0.085,335.2
2020-04-17T05:55:03,42.805,6.029,-0.027,0.064,-0.029,103.0,117.0,102.0,13.4,1505.3,325.2,-0.7,1.8,2470.44,13.32,0.069,337.1
2020-04-17T05:58:03,42.805,6.029,-0.041,0.047,0.005,104.0,116.0,100.0,13.4,1505.3,325.2,-0.7,1.8,2470.426,13.32,0.062,318.9
2020-04-17T06:04:03,42.805,6.029,-0.013,0.05,0.046,104.0,119.0,102.0,13.3,1505.2,325.7,-0.7,1.8,2470.469,13.3,0.051,345.4
2020-04-17T06:07:03,42.805,6.029,-0.036,0.058,0.007,103.0,116.0,103.0,13.4,1505.3,324.7,-0.7,1.8,2470.424,13.31,0.068,328.2
2020-04-17T06:10:03,42.805,6.029,-0.054,0.044,-0.013,104.0,117.0,102.0,13.4,1505.3,326.1,-0.7,1.8,2470.431,13.32,0.069,309.2
2020-04-17T06:13:03,42.805,6.029,-0.031,0.057,0.008,104.0,117.0,102.0,13.4,1505.3,323.5,-0.7,1.8,2470.424,13.32,0.064,331.5
2020-04-17T06:16:03,42.805,6.029,-0.032,0.049,0.023,103.0,117.0,102.0,13.4,1505.3,326.5,-0.7,1.8,2470.404,13.32,0.058,326.8
2020-04-17T06:19:03,42.805,6.029,-0.04,0.063,0.006,103.0,117.0,101.0,13.4,1505.3,328.3,-0.7,1.9,2470.392,13.32,0.074,327.6
2020-04-17T06:22:03,42.805,6.029,-0.013,0.057,0.002,102.0,116.0,101.0,13.4,1505.3,327.2,-0.7,1.8,2470.399,13.32,0.058,347.2
2020-04-17T06:25:03,42.805,6.029,-0.051,0.055,0.031,105.0,117.0,102.0,13.4,1505.3,328.2,-0.7,1.8,2470.385,13.32,0.075,317.2
2020-04-17T06:28:03,42.805,6.029,-0.043,0.038,0.01,103.0,117.0,101.0,13.4,1505.3,323.8,-0.7,1.9,2470.354,13.32,0.057,311.5
2020-04-17T06:31:03,42.805,6.029,-0.023,0.066,0.041,103.0,118.0,101.0,13.4,1505.3,325.8,-0.7,1.8,2470.397,13.32,0.069,340.8
2020-04-17T06:34:03,42.805,6.029,-0.041,0.042,0.016,103.0,117.0,101.0,13.3,1505.3,324.0,-0.7,1.8,2470.395,13.32,0.058,315.7
2020-04-17T06:37:03,42.805,6.029,-0.042,0.058,0.0,104.0,117.0,101.0,13.4,1505.3,324.2,-0.7,1.8,2470.362,13.32,0.071,324.1
2020-04-17T06:40:03,42.805,6.029,-0.044,0.051,0.038,105.0,117.0,108.0,13.4,1505.3,326.5,-0.7,1.8,2470.381,13.32,0.067,319.2
2020-04-17T06:43:03,42.805,6.029,-0.033,0.049,0.013,104.0,118.0,101.0,13.3,1505.3,327.1,-0.7,1.9,2470.388,13.32,0.059,326.0
2020-04-17T06:46:03,42.805,6.029,-0.05,0.044,-0.004,105.0,116.0,101.0,13.4,1505.3,327.8,-0.7,1.8,2470.373,13.32,0.066,311.3
2020-04-17T06:49:03,42.805,6.029,-0.036,0.07,0.021,105.0,118.0,101.0,13.4,1505.3,325.9,-0.7,1.8,2470.386,13.32,0.078,332.8
2020-04-17T06:52:03,42.805,6.029,-0.052,0.056,0.003,103.0,116.0,102.0,13.4,1505.3,325.6,-0.7,1.8,2470.373,13.32,0.076,317.1
2020-04-17T06:55:03,42.805,6.029,-0.026,0.063,0.03,104.0,118.0,101.0,13.3,1505.3,325.8,-0.7,1.8,2470.351,13.32,0.068,337.6
2020-04-17T06:58:03,42.805,6.029,-0.047,0.045,-0.015,104.0,118.0,102.0,13.4,1505.3,326.9,-0.7,1.8,2470.343,13.32,0.065,313.8
2020-04-17T07:04:03,42.805,6.029,-0.059,0.057,0.0,104.0,117.0,101.0,13.3,1505.2,326.4,-0.7,1.9,2470.406,13.3,0.082,314.0
2020-04-17T07:07:03,42.805,6.029,-0.007,0.039,0.025,104.0,118.0,101.0,13.3,1505.3,323.3,-0.7,1.8,2470.385,13.31,0.039,349.8
2020-04-17T07:10:03,42.805,6.029,-0.024,0.067,0.045,104.0,119.0,101.0,13.4,1505.3,324.4,-0.7,1.8,2470.35,13.32,0.071,340.3
2020-04-17T07:13:03,42.805,6.029,-0.058,0.069,-0.003,105.0,118.0,101.0,13.4,1505.3,326.3,-0.7,1.8,2470.355,13.32,0.09,320.0
2020-04-17T07:16:03,42.805,6.029,-0.065,0.069,0.033,104.0,118.0,101.0,13.4,1505.3,323.7,-0.7,1.9,2470.369,13.32,0.094,316.7
2020-04-17T07:19:03,42.805,6.029,-0.044,0.058,0.022,104.0,117.0,101.0,13.4,1505.3,326.9,-0.7,1.8,2470.348,13.32,0.072,322.8
2020-04-17T07:22:03,42.805,6.029,-0.028,0.063,0.039,103.0,117.0,101.0,13.4,1505.3,324.5,-0.7,1.8,2470.378,13.32,0.068,336.0
2020-04-17T07:25:03,42.805,6.029,-0.076,0.068,-0.004,102.0,118.0,102.0,13.4,1505.3,324.9,-0.7,1.8,2470.33,13.32,0.101,311.8
2020-04-17T07:28:03,42.805,6.029,-0.047,0.044,-0.004,105.0,117.0,101.0,13.4,1505.3,327.7,-0.7,1.8,2470.342,13.32,0.064,313.1
2020-04-17T07:31:03,42.805,6.029,-0.048,0.041,-0.003,103.0,118.0,101.0,13.4,1505.3,325.6,-0.7,1.9,2470.387,13.32,0.063,310.5
2020-04-17T07:34:03,42.805,6.029,-0.066,0.077,-0.032,104.0,118.0,102.0,13.3,1505.3,328.6,-0.7,1.8,2470.371,13.32,0.101,319.4
2020-04-17T07:37:03,42.805,6.029,-0.038,0.039,0.039,103.0,117.0,102.0,13.4,1505.3,323.5,-0.7,1.8,2470.35,13.32,0.054,315.7
2020-04-17T07:40:03,42.805,6.029,-0.062,0.046,-0.015,104.0,117.0,101.0,13.4,1505.3,325.4,-0.7,1.8,2470.377,13.32,0.077,306.6
2020-04-17T07:43:03,42.805,6.029,-0.049,0.036,0.0,104.0,118.0,100.0,13.4,1505.3,322.7,-0.7,1.8,2470.359,13.32,0.06,306.3
2020-04-17T07:46:03,42.805,6.029,-0.075,0.049,-0.031,104.0,117.0,102.0,13.4,1505.3,325.1,-0.7,1.8,2470.33,13.32,0.089,303.2
2020-04-17T07:49:03,42.805,6.029,-0.047,0.075,0.038,104.0,118.0,101.0,13.4,1505.3,327.3,-0.7,1.9,2470.325,13.32,0.088,327.9
2020-04-17T07:52:03,42.805,6.029,-0.039,0.067,0.015,104.0,119.0,102.0,13.3,1505.3,323.9,-0.7,1.8,2470.342,13.32,0.077,329.8
2020-04-17T07:55:03,42.805,6.029,-0.036,0.055,-0.017,104.0,119.0,102.0,13.4,1505.3,325.7,-0.7,1.8,2470.315,13.32,0.065,326.8
2020-04-17T07:58:03,42.805,6.029,-0.06,0.06,0.016,105.0,118.0,101.0,13.3,1505.3,324.5,-0.7,1.8,2470.367,13.32,0.084,315.0
2020-04-17T08:04:03,42.805,6.029,-0.031,0.049,-0.022,105.0,118.0,102.0,13.4,1505.2,326.0,-0.7,1.8,2470.37,13.3,0.057,327.7
2020-04-17T08:07:03,42.805,6.029,-0.039,0.051,-0.011,105.0,120.0,101.0,13.3,1505.3,326.4,-0.7,1.8,2470.334,13.31,0.064,322.6
2020-04-17T08:10:03,42.805,6.029,-0.046,0.053,0.003,105.0,116.0,101.0,13.4,1505.3,327.2,-0.7,1.8,2470.368,13.32,0.07,319.0
2020-04-17T08:13:03,42.805,6.029,-0.05,0.065,0.004,103.0,117.0,101.0,13.4,1505.3,327.4,-0.7,1.8,2470.316,13.32,0.082,322.4
2020-04-17T08:16:03,42.805,6.029,-0.038,0.064,0.053,102.0,118.0,102.0,13.3,1505.3,327.6,-0.7,1.9,2470.335,13.32,0.074,329.3
2020-04-17T08:19:03,42.805,6.029,-0.055,0.066,-0.01,103.0,119.0,102.0,13.3,1505.3,328.6,-0.7,1.8,2470.333,13.32,0.085,320.2
2020-04-17T08:22:03,42.805,6.029,-0.048,0.054,0.006,104.0,119.0,102.0,13.3,1505.3,324.1,-0.7,1.8,2470.329,13.32,0.072,318.4
2020-04-17T08:25:03,42.805,6.029,-0.057,0.06,-0.02,103.0,118.0,101.0,13.3,1505.3,328.4,-0.7,1.8,2470.369,13.32,0.082,316.5
2020-04-17T08:28:03,42.805,6.029,-0.036,0.041,0.013,104.0,119.0,101.0,13.3,1505.3,325.8,-0.7,1.8,2470.308,13.32,0.054,318.7
2020-04-17T08:31:03,42.805,6.029,-0.029,0.058,0.007,104.0,119.0,101.0,13.4,1505.3,324.9,-0.7,1.8,2470.297,13.32,0.064,333.4
2020-04-17T08:34:03,42.805,6.029,-0.056,0.066,-0.007,105.0,116.0,102.0,13.4,1505.3,325.9,-0.7,1.8,2470.331,13.32,0.086,319.7
2020-04-17T08:37:03,42.805,6.029,-0.065,0.069,0.007,104.0,116.0,101.0,13.4,1505.3,322.8,-0.7,1.9,2470.303,13.32,0.094,316.7
2020-04-17T08:40:03,42.805,6.029,-0.057,0.062,0.001,103.0,118.0,102.0,13.4,1505.3,327.7,-0.7,1.8,2470.312,13.32,0.084,317.4
2020-04-17T08:43:03,42.805,6.029,-0.038,0.043,0.008,103.0,117.0,101.0,13.3,1505.3,326.0,-0.7,1.8,2470.301,13.32,0.057,318.5
2020-04-17T08:46:03,42.805,6.029,-0.064,0.061,-0.003,104.0,117.0,102.0,13.4,1505.3,323.2,-0.7,1.9,2470.325,13.32,0.088,313.6
2020-04-17T08:49:03,42.805,6.029,-0.057,0.076,0.005,103.0,117.0,102.0,13.4,1505.3,326.9,-0.7,1.9,2470.334,13.32,0.095,323.1
2020-04-17T08:52:03,42.805,6.029,-0.028,0.066,-0.031,105.0,117.0,101.0,13.3,1505.3,326.5,-0.7,1.8,2470.326,13.32,0.071,337.0
2020-04-17T08:55:03,42.805,6.029,-0.023,0.055,0.027,104.0,119.0,101.0,13.3,1505.3,323.1,-0.7,1.8,2470.3,13.32,0.059,337.3
2020-04-17T08:58:03,42.805,6.029,-0.05,0.063,-0.006,105.0,117.0,101.0,13.4,1505.3,324.4,-0.7,1.8,2470.298,13.32,0.08,321.6
2020-04-17T09:04:03,42.805,6.029,-0.018,0.052,0.031,104.0,119.0,101.0,13.4,1505.2,327.4,-0.7,1.8,2470.317,13.3,0.055,340.9
2020-04-17T09:07:03,42.805,6.029,-0.033,0.059,0.014,104.0,119.0,102.0,13.4,1505.3,326.5,-0.7,1.8,2470.312,13.31,0.067,330.8
2020-04-17T09:10:03,42.805,6.029,-0.053,0.061,0.008,104.0,118.0,102.0,13.4,1505.3,325.4,-0.7,1.8,2470.332,13.32,0.08,319.0
2020-04-17T09:13:03,42.805,6.029,-0.033,0.055,0.019,103.0,117.0,100.0,13.4,1505.3,326.2,-0.7,1.8,2470.335,13.32,0.064,329.0
2020-04-17T09:16:03,42.805,6.029,-0.073,0.055,-0.028,103.0,120.0,101.0,13.3,1505.3,326.1,-0.7,1.8,2470.35,13.32,0.091,307.0
2020-04-17T09:19:03,42.805,6.029,-0.037,0.036,0.019,102.0,119.0,102.0,13.4,1505.3,325.2,-0.7,1.8,2470.31,13.32,0.051,314.2
2020-04-17T09:22:03,42.805,6.029,-0.055,0.05,0.001,102.0,118.0,101.0,13.4,1505.3,322.9,-0.7,1.8,2470.303,13.32,0.074,312.3
2020-04-17T09:25:03,42.805,6.029,-0.048,0.041,-0.016,105.0,119.0,101.0,13.4,1505.3,326.1,-0.7,1.8,2470.295,13.32,0.063,310.5
2020-04-17T09:28:03,42.805,6.029,-0.04,0.049,-0.005,104.0,119.0,101.0,13.4,1505.3,324.3,-0.7,1.8,2470.298,13.32,0.063,320.8
2020-04-17T09:31:03,42.805,6.029,-0.04,0.052,-0.008,104.0,118.0,101.0,13.4,1505.3,326.7,-0.7,1.8,2470.283,13.33,0.065,322.4
2020-04-17T09:34:03,42.805,6.029,-0.023,0.046,-0.003,103.0,118.0,101.0,13.3,1505.3,323.8,-0.7,1.8,2470.263,13.33,0.051,333.4
2020-04-17T09:37:03,42.805,6.029,-0.027,0.054,0.008,104.0,117.0,101.0,13.3,1505.3,326.3,-0.7,1.8,2470.309,13.33,0.06,333.4
2020-04-17T09:40:03,42.805,6.029,-0.006,0.051,-0.008,102.0,117.0,102.0,13.4,1505.3,326.3,-0.7,1.8,2470.244,13.33,0.051,353.3
2020-04-17T09:43:03,42.805,6.029,-0.035,0.056,0.026,104.0,117.0,101.0,13.3,1505.3,325.9,-0.7,1.8,2470.291,13.32,0.066,328.0
2020-04-17T09:46:03,42.805,6.029,-0.057,0.047,-0.008,103.0,118.0,101.0,13.4,1505.3,326.4,-0.7,1.9,2470.299,13.32,0.073,309.5
2020-04-17T09:49:03,42.805,6.029,-0.024,0.058,0.017,103.0,117.0,100.0,13.4,1505.3,326.9,-0.7,1.8,2470.28,13.32,0.062,337.5
2020-04-17T09:52:03,42.805,6.029,-0.017,0.039,-0.004,104.0,118.0,101.0,13.4,1505.3,325.8,-0.7,1.8,2470.303,13.32,0.042,336.5
2020-04-17T09:55:03,42.805,6.029,-0.024,0.043,0.025,104.0,117.0,102.0,13.4,1505.3,326.2,-0.7,1.8,2470.24,13.32,0.049,330.8
2020-04-17T09:58:03,42.805,6.029,-0.046,0.057,-0.001,103.0,117.0,100.0,13.4,1505.3,326.5,-0.7,1.8,2470.264,13.32,0.073,321.1
2020-04-17T10:04:03,42.805,6.029,-0.032,0.062,0.03,103.0,117.0,102.0,13.4,1505.3,323.4,-0.8,1.8,2470.292,13.31,0.069,332.7